Weather History for KSUE - October, 2012

Change the Weather History Date:

Thursday, October 25, 2012

  Actual Average Record
Temperature  
Mean Temperature 52 °F -  
Max Temperature 62 °F 54 °F 73 °F (1964)
Min Temperature 42 °F 38 °F 21 °F (1960)
Degree Days  
Heating Degree Days 13    
Growing Degree Days 2 (Base 50)    
Moisture  
Dew Point 52 °F    
Average Humidity 86    
Maximum Humidity 94    
Minimum Humidity 76    
Precipitation  
Precipitation 0.36 in - - ()
Sea Level Pressure  
Sea Level Pressure 29.67 in    
Wind  
Wind Speed 17 mph (SSW)    
Max Wind Speed 25 mph    
Max Gust Speed 32 mph    
Visibility 9 miles    
Events Thunderstorm    
Averages and records for this station are not official NWS values.
T = Trace of Precipitation, MM = Missing Value Source: NWS Daily Summary

Daily Weather History Graph

Daily Weather History Graph

Search for Another Location

Airport or City:

Trip Planner

Search our weather history database for the weather conditions in past years. The results will help you decide how hot, cold, wet, or windy it might be!

Date:

Astronomy

Oct. 25, 2012 Rise Set
Actual Time 7:19 AM CDT 5:47 PM CDT
Civil Twilight 6:48 AM CDT 6:17 PM CDT
Nautical Twilight 6:14 AM CDT 6:51 PM CDT
Astronomical Twilight 5:40 AM CDT 7:25 PM CDT
Moon 3:41 PM CDT (10/25) 3:05 AM CDT (10/25)
Length of Visible Light 11h 28m
Length of Day
10h 28m
Waxing Gibbous, 84% of the Moon is Illuminated
Oct 25
Waxing Gibbous
Oct 29
Full
Nov 6
Last Quarter
Nov 13
New
Nov 20
First Quarter

Hourly Weather History & Observations

Time (CDT) Temp. Windchill Dew Point Humidity Pressure Visibility Wind Dir Wind Speed Gust Speed Precip Events Conditions
12:15 AM 62.6 °F - 60.8 °F 94% 29.76 in 10.0 mi South 16.1 mph 20.7 mph N/A   Mostly Cloudy
12:35 AM 62.6 °F - 59.0 °F 88% 29.76 in 9.0 mi South 16.1 mph - N/A   Mostly Cloudy
12:55 AM 60.8 °F - 57.2 °F 88% 29.75 in 7.0 mi South 13.8 mph 23.0 mph N/A   Partly Cloudy
1:15 AM 60.8 °F - 57.2 °F 88% 29.77 in 7.0 mi South 13.8 mph 19.6 mph N/A   Scattered Clouds
1:35 AM 60.8 °F - 57.2 °F 88% 29.76 in 6.0 mi South 12.7 mph - N/A   Partly Cloudy
1:55 AM 60.8 °F - 57.2 °F 88% 29.76 in 6.0 mi South 12.7 mph - N/A   Clear
2:35 AM 60.8 °F - 57.2 °F 88% 29.73 in 5.0 mi South 17.3 mph 23.0 mph N/A   Mostly Cloudy
2:55 AM 59.0 °F - 57.2 °F 94% 29.73 in 5.0 mi South 15.0 mph 25.3 mph N/A   Mostly Cloudy
3:15 AM 59.0 °F - 57.2 °F 94% 29.73 in 5.0 mi South 16.1 mph 21.9 mph N/A   Scattered Clouds
3:35 AM 59.0 °F - 57.2 °F 94% 29.72 in 5.0 mi South 15.0 mph 23.0 mph N/A   Scattered Clouds
3:55 AM 59.0 °F - 57.2 °F 94% 29.71 in 5.0 mi South 17.3 mph 23.0 mph N/A   Overcast
4:15 AM 60.8 °F - 57.2 °F 88% 29.70 in 6.0 mi South 17.3 mph 24.2 mph N/A   Overcast
4:35 AM 59.0 °F - 57.2 °F 94% 29.69 in 7.0 mi South 16.1 mph 23.0 mph N/A   Mostly Cloudy
4:55 AM 60.8 °F - 57.2 °F 88% 29.69 in 8.0 mi South 17.3 mph 24.2 mph N/A   Overcast
5:15 AM 60.8 °F - 57.2 °F 88% 29.69 in 8.0 mi South 18.4 mph 24.2 mph N/A   Overcast
5:35 AM 60.8 °F - 57.2 °F 88% 29.69 in 10.0 mi South 17.3 mph 23.0 mph N/A   Overcast
5:55 AM 60.8 °F - 57.2 °F 88% 29.68 in 10.0 mi South 15.0 mph 23.0 mph N/A   Mostly Cloudy
6:55 AM 60.8 °F - 57.2 °F 88% 29.66 in 10.0 mi South 16.1 mph 23.0 mph N/A   Clear
7:15 AM 60.8 °F - 57.2 °F 88% 29.66 in 10.0 mi South 12.7 mph - N/A   Clear
7:35 AM 59.0 °F - 55.4 °F 88% 29.65 in 8.0 mi South 13.8 mph - N/A   Clear
7:55 AM 59.0 °F - 55.4 °F 88% 29.66 in 7.0 mi South 13.8 mph 23.0 mph N/A   Clear
8:35 AM 59.0 °F - 55.4 °F 88% 29.64 in 8.0 mi South 19.6 mph 25.3 mph N/A   Clear
8:55 AM 60.8 °F - 55.4 °F 82% 29.63 in 10.0 mi South 18.4 mph 28.8 mph N/A   Clear
9:15 AM 59.0 °F - 55.4 °F 88% 29.62 in 9.0 mi South 20.7 mph 28.8 mph N/A   Clear
9:35 AM 59.0 °F - 55.4 °F 88% 29.62 in 9.0 mi South 18.4 mph 27.6 mph N/A   Clear
9:55 AM 60.8 °F - 55.4 °F 82% 29.62 in 10.0 mi South 19.6 mph 25.3 mph N/A   Mostly Cloudy
10:15 AM 60.8 °F - 55.4 °F 82% 29.62 in 10.0 mi South 17.3 mph 24.2 mph N/A   Overcast
10:55 AM 62.6 °F - 57.2 °F 82% 29.62 in 10.0 mi South 15.0 mph 20.7 mph N/A   Mostly Cloudy
11:15 AM 60.8 °F - 55.4 °F 82% 29.62 in 10.0 mi South 18.4 mph 21.9 mph N/A   Mostly Cloudy
11:35 AM 62.6 °F - 55.4 °F 77% 29.61 in 10.0 mi South 18.4 mph 27.6 mph N/A   Partly Cloudy
11:55 AM 60.8 °F - 55.4 °F 82% 29.60 in 10.0 mi South 18.4 mph 26.5 mph N/A   Mostly Cloudy
12:15 PM 60.8 °F - 55.4 °F 82% 29.60 in 10.0 mi South 19.6 mph 25.3 mph N/A   Overcast
12:35 PM 60.8 °F - 55.4 °F 82% 29.59 in 10.0 mi South 20.7 mph 27.6 mph N/A   Overcast
12:55 PM 60.8 °F - 55.4 °F 82% 29.57 in 10.0 mi South 19.6 mph 27.6 mph N/A   Mostly Cloudy
1:15 PM 60.8 °F - 55.4 °F 82% 29.57 in 10.0 mi South 19.6 mph 31.1 mph N/A   Mostly Cloudy
1:35 PM 60.8 °F - 55.4 °F 82% 29.58 in 10.0 mi South 17.3 mph 26.5 mph N/A   Mostly Cloudy
1:55 PM 59.0 °F - 55.4 °F 88% 29.58 in 10.0 mi South 18.4 mph 24.2 mph N/A   Overcast
2:15 PM 59.0 °F - 53.6 °F 82% 29.55 in 10.0 mi South 20.7 mph 28.8 mph N/A   Overcast
2:35 PM 59.0 °F - 55.4 °F 88% 29.55 in 10.0 mi South 21.9 mph 27.6 mph N/A   Overcast
2:55 PM 59.0 °F - 53.6 °F 82% 29.55 in 10.0 mi South 19.6 mph 25.3 mph N/A   Overcast
3:15 PM 59.0 °F - 53.6 °F 82% 29.55 in 10.0 mi South 19.6 mph 26.5 mph N/A   Overcast
3:35 PM 59.0 °F - 55.4 °F 88% 29.54 in 10.0 mi South 17.3 mph 24.2 mph N/A   Overcast
3:55 PM 57.2 °F - 55.4 °F 94% 29.54 in 9.0 mi South 15.0 mph - N/A   Overcast
4:15 PM 59.0 °F - 55.4 °F 88% 29.53 in 10.0 mi South 19.6 mph 27.6 mph N/A   Overcast
4:35 PM 59.0 °F - 55.4 °F 88% 29.53 in 10.0 mi South 18.4 mph 26.5 mph N/A   Overcast
4:55 PM 60.8 °F - 55.4 °F 82% 29.54 in 10.0 mi South 17.3 mph 26.5 mph N/A   Overcast
5:15 PM 60.8 °F - 57.2 °F 88% 29.55 in 5.0 mi WSW 12.7 mph - N/A   Overcast
5:35 PM 59.0 °F - 55.4 °F 88% 29.59 in 4.0 mi West 19.6 mph 27.6 mph 0.14 in Thunderstorm Thunderstorm
5:55 PM 55.4 °F - 53.6 °F 94% 29.62 in 10.0 mi West 15.0 mph 24.2 mph 0.15 in   Mostly Cloudy
6:15 PM 55.4 °F - 51.8 °F 88% 29.62 in 10.0 mi WSW 15.0 mph 19.6 mph 0.01 in   Overcast
6:35 PM 53.6 °F - 50.0 °F 88% 29.65 in 6.0 mi West 16.1 mph 32.2 mph 0.14 in Thunderstorm Thunderstorm
6:55 PM 50.0 °F - 46.4 °F 87% 29.69 in 9.0 mi West 17.3 mph 25.3 mph 0.18 in   Overcast
7:15 PM 48.2 °F - 46.4 °F 93% 29.71 in 10.0 mi West 17.3 mph 24.2 mph 0.02 in   Overcast
7:35 PM 48.2 °F - 44.6 °F 87% 29.71 in 10.0 mi WNW 23.0 mph 26.5 mph 0.02 in   Overcast
7:55 PM 46.4 °F 39.8 °F 42.8 °F 87% 29.72 in 10.0 mi WNW 16.1 mph 24.2 mph 0.02 in   Overcast
8:15 PM 44.6 °F 36.4 °F 41.0 °F 87% 29.75 in 10.0 mi WNW 20.7 mph 27.6 mph 0.01 in   Mostly Cloudy
8:35 PM 44.6 °F 36.4 °F 42.8 °F 93% 29.77 in 10.0 mi WNW 20.7 mph - 0.01 in   Overcast
8:55 PM 44.6 °F 36.4 °F 39.2 °F 81% 29.77 in 10.0 mi WNW 20.7 mph 27.6 mph 0.01 in   Overcast
9:15 PM 44.6 °F 37.2 °F 37.4 °F 76% 29.79 in 10.0 mi WNW 17.3 mph 27.6 mph N/A   Overcast
9:35 PM 44.6 °F 36.1 °F 37.4 °F 76% 29.81 in 10.0 mi WNW 21.9 mph 29.9 mph N/A   Overcast
9:55 PM 42.8 °F 33.1 °F 35.6 °F 76% 29.83 in 10.0 mi NW 25.3 mph 29.9 mph N/A   Overcast
10:15 PM 42.8 °F 34.3 °F 35.6 °F 76% 29.85 in 10.0 mi NW 19.6 mph 28.8 mph N/A   Overcast
10:35 PM 42.8 °F 34.5 °F 35.6 °F 76% 29.87 in 10.0 mi WNW 18.4 mph 25.3 mph N/A   Overcast
10:55 PM 42.8 °F 35.4 °F 35.6 °F 76% 29.89 in 10.0 mi WNW 15.0 mph 27.6 mph N/A   Overcast
11:15 PM 42.8 °F 35.4 °F 35.6 °F 76% 29.90 in 10.0 mi WNW 15.0 mph - N/A   Overcast
11:35 PM 42.8 °F 34.8 °F 35.6 °F 76% 29.93 in 10.0 mi WNW 17.3 mph 24.2 mph N/A   Overcast